GW0614 Weather Reports


Display with metric or nautical units.
time (UTC)temp
F
wind
direction
speed
MPH
gust
MPH
rain 1hr
in
rain 24hr
in
rain mn
in
humidity
%
barometer
mb
20260505215217 78 34 0.0 0.0 0.00 0.00 0.00 39 1008.6
20260505214715 79 44 2.0 3.0 0.00 0.00 0.00 39 1008.4
20260505214212 79 345 0.0 0.0 0.00 0.00 0.00 39 1008.4
20260505213709 79 351 0.0 0.0 0.00 0.00 0.00 38 1008.2
20260505213206 80 38 0.0 1.0 0.00 0.00 0.00 39 1008.3
20260505212702 80 353 3.0 5.0 0.00 0.00 0.00 36 1008.2
20260505212200 82 30 0.0 0.0 0.00 0.00 0.00 37 1008.2
20260505211657 83 76 2.0 3.0 0.00 0.00 0.00 35 1008.2
20260505211154 83 5 3.0 3.0 0.00 0.00 0.00 35 1008.0
20260505210650 83 53 5.0 6.0 0.00 0.00 0.00 37 1008.0
20260505210147 83 82 2.0 3.0 0.00 0.00 0.00 38 1007.7
20260505205644 83 37 3.0 6.0 0.00 0.00 0.00 37 1008.0
20260505205143 83 70 3.0 5.0 0.00 0.00 0.00 36 1007.8
20260505204639 82 258 1.0 2.0 0.00 0.00 0.00 40 1007.8
20260505204137 82 130 3.0 6.0 0.00 0.00 0.00 38 1008.0
20260505203634 82 71 3.0 3.0 0.00 0.00 0.00 38 1007.9
20260505203131 82 79 3.0 5.0 0.00 0.00 0.00 35 1008.2
20260505202626 82 123 3.0 3.0 0.00 0.00 0.00 38 1008.3
20260505202122 83 263 4.0 14.0 0.00 0.00 0.00 35 1008.5
20260505201619 83 335 3.0 5.0 0.00 0.00 0.00 38 1008.3
20260505201117 83 81 3.0 3.0 0.00 0.00 0.00 38 1008.6
20260505200615 84 117 2.0 2.0 0.00 0.00 0.00 40 1008.1
20260505200112 83 65 1.0 1.0 0.00 0.00 0.00 43 1008.0
20260505195608 82 4 3.0 3.0 0.00 0.00 0.00 38 1008.2
20260505195105 84 16 2.0 2.0 0.00 0.00 0.00 39 1008.2
20260505194602 84 141 4.0 5.0 0.00 0.00 0.00 41 1008.2
20260505194058 83 336 2.0 3.0 0.00 0.00 0.00 40 1008.2
20260505193555 82 77 3.0 5.0 0.00 0.00 0.00 42 1008.2
20260505193052 83 12 5.0 7.0 0.00 0.00 0.00 38 1008.7
20260505192551 84 243 1.0 3.0 0.00 0.00 0.00 39 1008.5
20260505192048 83 168 3.0 5.0 0.00 0.00 0.00 41 1008.6
20260505191546 82 137 4.0 6.0 0.00 0.00 0.00 40 1008.6
20260505191044 84 210 9.0 14.0 0.00 0.00 0.00 38 1008.6
20260505190538 84 191 3.0 5.0 0.00 0.00 0.00 41 1008.7
20260505190034 84 180 5.0 9.0 0.00 0.00 0.00 41 1008.6
20260505185531 84 49 1.0 2.0 0.00 0.00 0.00 39 1008.7
20260505185027 84 59 0.0 1.0 0.00 0.00 0.00 42 1008.7
20260505184524 84 103 6.0 8.0 0.00 0.00 0.00 38 1008.8
20260505184021 84 181 4.0 7.0 0.00 0.00 0.00 39 1008.9
20260505183518 82 26 2.0 2.0 0.00 0.00 0.00 46 1008.7
20260505183016 82 74 2.0 3.0 0.00 0.00 0.00 40 1008.9
20260505182512 82 63 3.0 6.0 0.00 0.00 0.00 42 1009.1
20260505182008 83 50 2.0 3.0 0.00 0.00 0.00 38 1009.3
20260505181505 82 354 3.0 3.0 0.00 0.00 0.00 39 1009.1
20260505181003 83 2 5.0 6.0 0.00 0.00 0.00 40 1009.2
20260505180458 85 13 1.0 2.0 0.00 0.00 0.00 38 1008.8
20260505175955 84 15 3.0 5.0 0.00 0.00 0.00 39 1008.9
20260505175451 84 15 2.0 2.0 0.00 0.00 0.00 39 1009.2
20260505174948 84 126 4.0 7.0 0.00 0.00 0.00 40 1009.2
20260505174445 83 197 6.0 7.0 0.00 0.00 0.00 44 1009.3
20260505173941 83 180 2.0 3.0 0.00 0.00 0.00 44 1009.4
20260505173438 82 350 5.0 10.0 0.00 0.00 0.00 40 1009.6
20260505172935 83 215 5.0 8.0 0.00 0.00 0.00 44 1009.5
20260505172433 82 194 3.0 3.0 0.00 0.00 0.00 47 1009.7
20260505171932 82 162 6.0 8.0 0.00 0.00 0.00 44 1009.7
20260505171430 82 214 6.0 8.0 0.00 0.00 0.00 46 1009.8
20260505170926 81 33 2.0 2.0 0.00 0.00 0.00 47 1009.6
20260505170423 81 68 3.0 5.0 0.00 0.00 0.00 44 1009.8
20260505165918 81 211 0.0 1.0 0.00 0.00 0.00 44 1010.0
20260505165415 82 98 3.0 5.0 0.00 0.00 0.00 47 1009.8
20260505164910 82 142 3.0 5.0 0.00 0.00 0.00 46 1010.1
20260505164407 81 259 3.0 3.0 0.00 0.00 0.00 47 1010.1
20260505163905 80 33 2.0 2.0 0.00 0.00 0.00 49 1010.3
20260505163404 80 43 4.0 6.0 0.00 0.00 0.00 45 1010.3
20260505162902 80 346 3.0 6.0 0.00 0.00 0.00 52 1010.4
20260505162357 79 1 2.0 2.0 0.00 0.00 0.00 45 1010.5
20260505161855 79 141 5.0 8.0 0.00 0.00 0.00 51 1010.7
20260505161351 79 44 2.0 2.0 0.00 0.00 0.00 52 1010.6
20260505160849 77 144 1.0 6.0 0.00 0.00 0.00 52 1010.4
20260505160347 77 118 2.0 2.0 0.00 0.00 0.00 48 1010.7
20260505153326 78 237 3.0 5.0 0.00 0.00 0.00 48 1010.8
20260505152823 78 123 1.0 2.0 0.00 0.00 0.00 49 1011.1
20260505152320 78 139 2.0 2.0 0.00 0.00 0.00 50 1011.2
20260505151819 78 198 4.0 6.0 0.00 0.00 0.00 49 1011.4
20260505151317 78 53 1.0 2.0 0.00 0.00 0.00 51 1011.2
20260505150814 77 13 0.0 0.0 0.00 0.00 0.00 50 1011.2
20260505150311 77 182 4.0 5.0 0.00 0.00 0.00 50 1011.4
20260505140235 72 117 3.0 3.0 0.00 0.00 0.00 54 1012.1
20260505130159 67 168 3.0 5.0 0.00 0.00 0.00 60 1012.3
20260505124649 66 217 2.0 2.0 0.00 0.00 0.00 61 1012.6
20260505124145 66 193 2.0 3.0 0.00 0.00 0.00 62 1012.5
20260505123641 65 196 5.0 6.0 0.00 0.00 0.00 62 1012.4
20260505123138 64 68 0.0 0.0 0.00 0.00 0.00 63 1012.3
20260505122634 63 225 2.0 5.0 0.00 0.00 0.00 64 1012.3
20260505122132 63 85 2.0 3.0 0.00 0.00 0.00 64 1012.2
20260505121628 63 206 4.0 6.0 0.00 0.00 0.00 63 1012.4
20260505121125 62 58 0.0 0.0 0.00 0.00 0.00 66 1012.5
20260505120621 62 53 0.0 0.0 0.00 0.00 0.00 65 1012.5
20260505120117 62 44 0.0 0.0 0.00 0.00 0.00 66 1012.5
20260505115612 62 58 0.0 0.0 0.00 0.00 0.00 67 1012.6
20260505115110 61 51 0.0 0.0 0.00 0.00 0.00 67 1012.6
20260505114606 61 80 0.0 0.0 0.00 0.00 0.00 65 1012.5
20260505114103 60 233 0.0 2.0 0.00 0.00 0.00 65 1012.5
20260505113559 60 205 1.0 6.0 0.00 0.00 0.00 68 1012.2
20260505113056 60 87 2.0 3.0 0.00 0.00 0.00 67 1012.3
20260505112552 59 242 3.0 6.0 0.00 0.00 0.00 67 1012.2
20260505112050 60 56 0.0 1.0 0.00 0.00 0.00 66 1012.3
20260505111544 59 211 0.0 1.0 0.00 0.00 0.00 67 1012.0
20260505111040 60 69 2.0 3.0 0.00 0.00 0.00 67 1012.1
20260505110537 59 48 0.0 0.0 0.00 0.00 0.00 67 1011.7
20260505102009 58 59 1.0 2.0 0.00 0.00 0.00 69 1012.0
20260505101508 58 63 0.0 0.0 0.00 0.00 0.00 68 1012.1
20260505101004 58 196 0.0 1.0 0.00 0.00 0.00 68 1011.8
20260505100501 58 189 0.0 1.0 0.00 0.00 0.00 67 1011.6
20260505095957 58 40 0.0 0.0 0.00 0.00 0.00 68 1011.8
20260505095454 58 45 0.0 0.0 0.00 0.00 0.00 68 1011.5
20260505094950 57 198 0.0 1.0 0.00 0.00 0.00 68 1011.4
20260505094447 57 305 0.0 0.0 0.00 0.00 0.00 69 1011.4
20260505093943 58 50 0.0 0.0 0.00 0.00 0.00 67 1011.4
20260505093440 58 69 1.0 2.0 0.00 0.00 0.00 65 1011.3
20260505092937 57 190 7.0 9.0 0.00 0.00 0.00 65 1011.5
20260505092434 57 50 0.0 0.0 0.00 0.00 0.00 67 1011.1
20260505091932 57 37 0.0 0.0 0.00 0.00 0.00 68 1011.3
20260505091429 58 87 1.0 2.0 0.00 0.00 0.00 66 1011.2
20260505090927 57 69 0.0 0.0 0.00 0.00 0.00 68 1011.2
20260505090425 57 69 0.0 0.0 0.00 0.00 0.00 68 1011.1
20260505085922 58 63 0.0 0.0 0.00 0.00 0.00 67 1011.3
20260505085420 58 37 0.0 0.0 0.00 0.00 0.00 65 1011.4
20260505084918 58 56 1.0 1.0 0.00 0.00 0.00 63 1011.4
20260505084416 58 233 1.0 2.0 0.00 0.00 0.00 66 1011.4
20260505083914 58 210 1.0 5.0 0.00 0.00 0.00 63 1011.6
20260505083411 59 28 0.0 0.0 0.00 0.00 0.00 64 1011.8
20260505082907 58 59 0.0 1.0 0.00 0.00 0.00 65 1011.4
20260505082403 58 67 0.0 0.0 0.00 0.00 0.00 65 1011.7
20260505081900 58 63 0.0 0.0 0.00 0.00 0.00 64 1011.8
20260505081357 58 46 0.0 0.0 0.00 0.00 0.00 65 1011.6
20260505080853 59 50 0.0 0.0 0.00 0.00 0.00 65 1011.9
20260505080349 58 60 0.0 0.0 0.00 0.00 0.00 65 1011.7
20260505075845 58 64 0.0 0.0 0.00 0.00 0.00 64 1011.7
20260505075342 58 125 0.0 0.0 0.00 0.00 0.00 66 1011.8
20260505074839 59 20 0.0 0.0 0.00 0.00 0.00 64 1011.9
20260505074337 58 312 1.0 2.0 0.00 0.00 0.00 64 1011.6
20260505073834 58 54 4.0 6.0 0.00 0.00 0.00 64 1011.8
20260505073332 57 199 0.0 0.0 0.00 0.00 0.00 65 1011.7
20260505072828 58 51 0.0 0.0 0.00 0.00 0.00 66 1011.9
20260505072324 57 44 0.0 0.0 0.00 0.00 0.00 66 1011.9
20260505071820 57 37 0.0 0.0 0.00 0.00 0.00 67 1011.9
20260505071317 57 51 0.0 0.0 0.00 0.00 0.00 65 1011.8
20260505070816 57 43 0.0 0.0 0.00 0.00 0.00 68 1011.6
20260505070312 57 53 1.0 1.0 0.00 0.00 0.00 65 1011.7
20260505065807 58 23 1.0 1.0 0.00 0.00 0.00 63 1011.8
20260505065304 58 60 0.0 0.0 0.00 0.00 0.00 63 1011.9
20260505064801 58 83 0.0 1.0 0.00 0.00 0.00 64 1011.7
20260505064258 58 46 0.0 0.0 0.00 0.00 0.00 65 1011.8
20260505063756 57 31 0.0 0.0 0.00 0.00 0.00 65 1011.8
20260505063252 58 58 0.0 0.0 0.00 0.00 0.00 64 1011.9
20260505062749 58 126 2.0 3.0 0.00 0.00 0.00 62 1011.9
20260505062246 59 65 0.0 0.0 0.00 0.00 0.00 63 1011.9
20260505061743 59 42 1.0 2.0 0.00 0.00 0.00 63 1011.9
20260505061241 59 95 0.0 1.0 0.00 0.00 0.00 62 1012.1
20260505060738 59 74 0.0 0.0 0.00 0.00 0.00 63 1012.1
20260505060235 58 129 3.0 3.0 0.00 0.00 0.00 62 1012.1
20260505055730 59 69 0.0 0.0 0.00 0.00 0.00 62 1012.1
20260505055227 59 196 4.0 6.0 0.00 0.00 0.00 61 1012.1
20260505054724 59 43 0.0 1.0 0.00 0.00 0.00 60 1012.1
20260505054222 59 34 0.0 0.0 0.00 0.00 0.00 64 1012.2
20260505053720 59 39 2.0 3.0 0.00 0.00 0.00 61 1012.2
20260505053216 59 63 1.0 2.0 0.00 0.00 0.00 59 1012.2
20260505052714 59 194 3.0 6.0 0.00 0.00 0.00 59 1012.3
20260505052210 59 95 2.0 3.0 0.00 0.00 0.00 59 1012.1
20260505051707 59 77 0.0 1.0 0.00 0.00 0.00 61 1012.2
20260505051205 59 39 1.0 2.0 0.00 0.00 0.00 61 1012.1
20260505050703 59 117 0.0 0.0 0.00 0.00 0.00 60 1012.2
20260505050201 60 67 0.0 0.0 0.00 0.00 0.00 59 1012.3
20260505041631 59 56 0.0 0.0 0.00 0.00 0.00 61 1012.2
20260505041128 59 64 0.0 0.0 0.00 0.00 0.00 60 1012.3
20260505040625 59 57 0.0 0.0 0.00 0.00 0.00 62 1012.0
20260505040122 60 63 0.0 1.0 0.00 0.00 0.00 60 1011.9
20260505035618 60 58 0.0 0.0 0.00 0.00 0.00 59 1012.1
20260505035115 60 55 0.0 0.0 0.00 0.00 0.00 59 1012.0
20260505034612 60 45 0.0 0.0 0.00 0.00 0.00 59 1012.0
20260505034109 60 32 0.0 0.0 0.00 0.00 0.00 59 1012.1
20260505033605 60 58 0.0 0.0 0.00 0.00 0.00 60 1012.0
20260505033104 60 34 1.0 2.0 0.00 0.00 0.00 59 1011.9
20260505032601 60 64 0.0 0.0 0.00 0.00 0.00 60 1011.9
20260505032057 60 58 0.0 1.0 0.00 0.00 0.00 59 1012.1
20260505031555 60 24 0.0 0.0 0.00 0.00 0.00 59 1011.9
20260505031051 59 49 0.0 0.0 0.00 0.00 0.00 63 1012.1
20260505030548 58 201 0.0 2.0 0.00 0.00 0.00 64 1012.0
20260505030044 59 51 0.0 0.0 0.00 0.00 0.00 63 1012.1
20260505025540 58 54 0.0 0.0 0.00 0.00 0.00 63 1012.1
20260505025039 58 195 1.0 2.0 0.00 0.00 0.00 65 1012.0
20260505024535 58 46 0.0 0.0 0.00 0.00 0.00 63 1011.8
20260505024032 58 97 3.0 5.0 0.00 0.00 0.00 62 1012.1
20260505023529 58 64 0.0 0.0 0.00 0.00 0.00 62 1012.0
20260505023027 59 56 0.0 0.0 0.00 0.00 0.00 61 1011.7
20260505022525 59 205 1.0 2.0 0.00 0.00 0.00 60 1011.9
20260505022022 60 63 0.0 0.0 0.00 0.00 0.00 58 1012.1
20260505021518 60 57 0.0 0.0 0.00 0.00 0.00 56 1011.8
20260505021014 61 59 0.0 0.0 0.00 0.00 0.00 55 1012.1
20260505020509 61 102 3.0 3.0 0.00 0.00 0.00 53 1011.9
20260505020006 61 29 0.0 0.0 0.00 0.00 0.00 54 1011.8
20260505015503 62 37 0.0 0.0 0.00 0.00 0.00 54 1011.7
20260505015000 63 40 0.0 0.0 0.00 0.00 0.00 52 1011.9
20260505014457 63 41 0.0 0.0 0.00 0.00 0.00 51 1012.0
20260505013954 63 77 0.0 0.0 0.00 0.00 0.00 51 1011.9
20260505013451 63 61 0.0 1.0 0.00 0.00 0.00 50 1011.5
20260505012949 63 142 4.0 6.0 0.00 0.00 0.00 50 1011.7
20260505012447 62 29 0.0 1.0 0.00 0.00 0.00 52 1011.6
20260505011943 61 76 0.0 1.0 0.00 0.00 0.00 52 1011.5
20260505011439 61 50 0.0 0.0 0.00 0.00 0.00 54 1011.6
20260505010936 62 37 0.0 0.0 0.00 0.00 0.00 55 1011.3
20260505010432 61 43 0.0 1.0 0.00 0.00 0.00 53 1011.4
20260505005928 61 59 2.0 2.0 0.00 0.00 0.00 56 1011.3
20260505005425 61 44 0.0 0.0 0.00 0.00 0.00 55 1011.3
20260505004923 60 46 0.0 0.0 0.00 0.00 0.00 55 1011.1
20260505004419 60 58 0.0 0.0 0.00 0.00 0.00 57 1011.1
20260505003916 58 42 0.0 0.0 0.00 0.00 0.00 58 1011.2
20260505003413 59 57 0.0 0.0 0.00 0.00 0.00 60 1010.9
20260505002909 59 51 0.0 0.0 0.00 0.00 0.00 60 1011.1
20260505002406 59 60 0.0 0.0 0.00 0.00 0.00 63 1010.7
20260505001904 59 50 0.0 0.0 0.00 0.00 0.00 60 1010.7
20260505001401 59 63 0.0 0.0 0.00 0.00 0.00 63 1010.6
20260505000858 60 54 0.0 0.0 0.00 0.00 0.00 57 1010.6
20260505000358 62 51 0.0 0.0 0.00 0.00 0.00 54 1010.5
20260504235852 63 49 0.0 0.0 0.00 0.00 0.00 54 1010.5
20260504235350 63 31 0.0 0.0 0.00 0.00 0.00 49 1010.4
20260504234846 64 202 1.0 2.0 0.00 0.00 0.00 50 1010.7
20260504234344 65 49 0.0 0.0 0.00 0.00 0.00 50 1010.4
20260504233840 65 24 0.0 1.0 0.00 0.00 0.00 46 1010.4
20260504233336 65 49 0.0 0.0 0.00 0.00 0.00 47 1010.3
20260504232833 66 44 0.0 0.0 0.00 0.00 0.00 48 1010.4
20260504232330 66 50 3.0 6.0 0.00 0.00 0.00 45 1010.2
20260504231827 66 46 0.0 0.0 0.00 0.00 0.00 46 1010.3
20260504231323 66 55 0.0 0.0 0.00 0.00 0.00 47 1010.2
20260504230819 66 63 0.0 0.0 0.00 0.00 0.00 44 1010.3
20260504230318 66 39 0.0 0.0 0.00 0.00 0.00 45 1010.1
20260504225816 68 50 0.0 0.0 0.00 0.00 0.00 43 1010.1
20260504225312 68 47 0.0 0.0 0.00 0.00 0.00 44 1010.1
20260504224809 69 165 1.0 1.0 0.00 0.00 0.00 41 1010.0
20260504224306 69 58 1.0 2.0 0.00 0.00 0.00 38 1009.8
20260504223803 69 30 0.0 0.0 0.00 0.00 0.00 41 1009.7
20260504223258 69 353 0.0 0.0 0.00 0.00 0.00 39 1009.5
20260504222755 69 55 1.0 3.0 0.00 0.00 0.00 40 1009.6
20260504222252 70 187 3.0 6.0 0.00 0.00 0.00 39 1009.7
20260504221750 71 166 2.0 3.0 0.00 0.00 0.00 39 1009.8
20260504221247 71 16 0.0 0.0 0.00 0.00 0.00 37 1009.7
20260504220743 71 341 2.0 2.0 0.00 0.00 0.00 39 1009.8
20260504220240 71 25 0.0 2.0 0.00 0.00 0.00 37 1010.0
20260504215738 72 217 3.0 5.0 0.00 0.00 0.00 38 1010.0